Regional Weather Roundup
Issued by NWS Sterling, VA

Home | Current Version | Previous Version | Graphics & Text | Print | Product List | Glossary On
Versions: 1 2 3 4 5 6 7 8 9 10 11 12 13 14 15 16 17 18 19 20 21 22 23 24 25 26 27 28 29 30 31 32 33 34 35 36 37 38 39 40 41 42 43 44 45 46 47 48 49 50
000
ASUS41 KLWX 040810
RWRLWX

REGIONAL WEATHER ROUNDUP
NATIONAL WEATHER SERVICE BALTIMORE MD/WASHINGTON DC
400 AM EDT SAT JUL 04 2015

Note: "FAIR" indicates few or no clouds below 12,000 feet
with no significant weather and/or obstructions to visibility.
 TC=TEMPERATURE CELSIUS

 * =Non NWS site. Station does not report precipitation (e.g. rain,
    snow, etc.), thunder, or fog.

DCZ001-MDZ009-015-VAZ040>042-051-053>054-040900-
WASHINGTON METRO

CITY           SKY/WX    TMP DP  RH WIND       PRES   REMARKS
WASHINGTON NAT CLOUDY    73  68  84 NE5       29.89F
DULLES         CLOUDY    69  65  86 CALM      29.89F
ANDREWS AFB    CLOUDY    69  69  99 E5        29.88F
FT BELVOIR     MOCLDY    68  67  94 CALM      29.89S
QUANTICO       MOCLDY    73  66  78 NE3       29.89F
COLLEGE PARK*  CLOUDY    70  68  94 CALM      29.89S
LEESBURG*      CLOUDY    70  68  94 E3        29.91S
MANASSAS*      CLOUDY    70  70 100 CALM        N/A
GAITHERSBURG*  CLOUDY    66  63  88 CALM      29.94F

$$

MDZ006>007-011-014-040900-
BALTIMORE METRO

CITY           SKY/WX    TMP DP  RH WIND       PRES   REMARKS
BWI AIRPORT    CLOUDY    70  66  87 E6        29.89F
MD SCIENCE CTR   N/A     73  67  81 MISG      29.90F
MARTIN STATE   CLOUDY    72  68  88 CALM      29.92F
ANNAPOLIS      CLOUDY    72  67  84 E6        29.89F
FORT MEADE*    CLOUDY    68  64  88 CALM      29.92F

$$

MDZ012-015-019>023-040900-
MARYLAND EASTERN SHORE

CITY           SKY/WX    TMP DP  RH WIND       PRES   REMARKS
OCEAN CITY     CLOUDY    73  69  87 E9        29.87F
SALISBURY      CLOUDY    70  68  93 NE6       29.87F
BAY BRIDGE AP*   N/A     70  66  88 E3        29.90S
CAMBRIDGE*     CLOUDY    72  68  88 NE3       29.87F
EASTON*        CLOUDY    69  69 100 E5        29.92F FOG

$$

MDZ017>025-040900-
SOUTHERN MARYLAND

CITY           SKY/WX    TMP DP  RH WIND       PRES   REMARKS
PATUXENT RIVER CLOUDY    72  69  90 E10       29.86F
ST INIGOES     CLOUDY    73  69  87 NE6       29.85F
LEONARDTOWN*   CLOUDY    70  66  88 E3        29.88F

$$

MDZ003>005-040900-
NORTH CENTRAL MARYLAND

CITY           SKY/WX    TMP DP  RH WIND       PRES   REMARKS
FREDERICK*     CLOUDY    64  64 100 N3        29.93F FOG
HAGERSTOWN APT CLOUDY    67  62  84 E5        29.90F
WESTMINSTER*   RAIN      70  64  83 CALM      29.92F

$$

MDZ501>502-040900-
WESTERN MARYLAND

CITY           SKY/WX    TMP DP  RH WIND       PRES   REMARKS
OAKLAND*       CLOUDY    59 N/A N/A S6        29.94S FOG
CUMBERLAND*    CLOUDY    66  66 100 CALM      29.92F

$$

VAZ025>031-040900-
SHENANDOAH VALLEY

CITY           SKY/WX    TMP DP  RH WIND       PRES   REMARKS
WINCHESTER*    LGT RAIN  68  68 100 CALM      29.89F
FRONT ROYAL*   CLOUDY    64  64 100 CALM      29.89S
LURAY*         DRIZZLE   68  68 100 CALM      29.90F
NEW MARKET*    CLOUDY    65  65 100 CALM      29.89F
STAUNTON*      DRIZZLE   68  66  93 CALM      29.93S
WAYNESBORO*    CLOUDY    65  65 100 CALM      29.92S

$$

WVZ021-048>050-054>055-040900-
EASTERN WEST VIRGINIA PANHANDLE

CITY           SKY/WX    TMP DP  RH WIND       PRES   REMARKS
MARTINSBURG    CLOUDY    67  64  90 CALM      29.90F
PETERSBURG*    DRIZZLE   64  61  91 CALM      29.91S

$$

VAZ036>039-050-040900-
CENTRAL FOOTHILLS

CITY           SKY/WX    TMP DP  RH WIND       PRES   REMARKS
CHARLOTTESVILL CLOUDY    69  66  90 CALM      29.89S FOG
CULPEPER*      CLOUDY    67  66  99 CALM      29.90S FOG
ORANGE*        CLOUDY    68  68 100 CALM      29.91S FOG
GORDONSVILLE*  CLOUDY    68  66  94 CALM      29.88F FOG
WARRENTON*     CLOUDY    69  69 100 CALM      29.89F FOG

$$

VAZ055>057-040900-
NORTH AND CENTRAL PIEDMONT

CITY           SKY/WX    TMP DP  RH WIND       PRES   REMARKS
FREDERICKSBRG* CLOUDY    71  71 100 CALM      29.87F
STAFFORD*      CLOUDY    67  65  94 CALM      29.92F

$$

NCZ024-NYZ072-PAZ021-071-VAZ022-071-040900-
OTHER REGIONAL OBSERVATIONS

CITY           SKY/WX    TMP DP  RH WIND       PRES   REMARKS
NEW YORK CITY  CLOUDY    71  58  63 SE3       29.99S
PHILADELPHIA   CLOUDY    70  65  84 E3        29.94S
PITTSBURGH     CLOUDY    67  64  90 N3        29.87S FOG
ROANOKE        CLOUDY    68  67  96 CALM      29.94S FOG
RICHMOND       CLOUDY    71  69  93 N6        29.85F
RALEIGH        PTCLDY    71  69  93 SW6       29.91S

$$

ANZ530>537-040900-
MARINE OBSERVATIONS

STATION/POSITION TIME  TEMP    WIND        PRES
                       AIR SEA DIR/SP/G
                 (UTC) (F)     (DEG/KT/KT) (MB)
THOMAS PT LIGHT  0800          110/  9       N/A
BALT KEY BRIDGE  0700   72     130/  8/ 11 1012.6F
COVE POINT       0700   71     120/  9/ 12 1012.6F
LEWISETTA        0700   75 79  100/ 13/ 15 1010.8F
SOLOMONS ISLAND  0700      79                N/A
PINEY POINT      0700          100/  8/ 10   N/A

$$




USA.gov is the U.S. government's official web portal to all federal, state and local government web resources and services.